FZAA

Kinshasa/Ndjili International Airport

Airport
ICAO code
FZAA
IATA Code
FIH
Summary
ICAO Region
AFI
Location

Kinshasa, Kinshasa

Serving
Kinshasa
Elevation
1027 ft
Coordinates
4° 23' 9" S , 15° 26' 40" E
Metar
FZAA 150530Z 00000KT 7000 SCT016 26/24 Q1013 NOSIG

N'djili Airport, also known as N'Djili International Airport and Kinshasa International Airport, serves the city of Kinshasa

Runways

Designator Length Width Surface Rops
6/24 4700 60 CON Yes/Yes

Airport map

Aerial View

SKYbrary Partners:

Safety knowledge contributed by: